Weather History for Madera, CA

Change the Weather History Date:

Saturday, December 22, 2012

  Actual Average Record
Temperature  
Mean Temperature 49 °F 44 °F  
Max Temperature 55 °F 53 °F 68 °F (2005)
Min Temperature 42 °F 36 °F 21 °F (1998)
Degree Days  
Heating Degree Days 16    
Month to date heating degree days 346  
Since 1 July heating degree days 714  
Cooling Degree Days 0    
Month to date cooling degree days 0  
Year to date cooling degree days 1737  
Moisture  
Dew Point 44 °F    
Average Humidity 80    
Maximum Humidity 93    
Minimum Humidity 66    
Precipitation  
Precipitation 0.35 in 0.07 in 0.35 in (2012)
Month to date precipitation 1.36 1.08  
Year to date precipitation 9.76 11.40  
Since 1 July precipitation 3.54 3.40  
Snow  
Snow 0.00 in - - ()
Month to date snowfall 0.0  
Since 1 July snowfall 0.0  
Snow Depth 0.00 in    
Sea Level Pressure  
Sea Level Pressure 30.05 in    
Wind  
Wind Speed 11 mph (ESE)    
Max Wind Speed 26 mph    
Max Gust Speed 32 mph    
Visibility 8 miles    
Events Rain    
T = Trace of Precipitation, MM = Missing Value Source: NWS Daily Summary

Daily Weather History Graph

Daily Weather History Graph

Search for Another Location

Airport:

Trip Planner

Search our weather history database for the weather conditions in past years. The results will help you decide how hot, cold, wet, or windy it might be!

Date:

Astronomy

Dec. 22, 2012 Rise Set
Actual Time 7:10 AM PST 4:48 PM PST
Civil Twilight 6:41 AM PST 5:17 PM PST
Nautical Twilight 6:09 AM PST 5:49 PM PST
Astronomical Twilight 5:37 AM PST 6:21 PM PST
Moon 1:04 PM PST (12/22) 2:05 AM PST (12/22)
Length of Visible Light 10h 35m
Length of Day
9h 37m
Waxing Gibbous, 74% of the Moon is Illuminated
Dec 22
Waxing Gibbous
Dec 28
Full
Jan 4
Last Quarter
Jan 11
New
Jan 18
First Quarter

Hourly Weather History & Observations

Time (PST) Temp. Windchill Dew Point Humidity Pressure Visibility Wind Dir Wind Speed Gust Speed Precip Events Conditions
12:53 AM 48.0 °F - 44.1 °F 86% 29.99 in 10.0 mi North - - 0.05 in   Overcast
1:53 AM 48.0 °F - 45.0 °F 89% 30.01 in 10.0 mi North - - 0.01 in Rain Light Rain
2:53 AM 48.0 °F - 43.0 °F 83% 30.00 in 9.0 mi North - - 0.09 in Rain Light Rain
4:53 AM 48.0 °F - 39.0 °F 71% 29.98 in 10.0 mi North - - 0.00 in   Mostly Cloudy
5:53 AM 50.0 °F - 39.0 °F 66% 29.98 in 10.0 mi North - - N/A   Overcast
6:53 AM 48.9 °F - 39.0 °F 69% 29.98 in 10.0 mi North - - 0.00 in   Overcast
7:53 AM 48.9 °F - 41.0 °F 74% 30.00 in 10.0 mi East 17.3 mph 24.2 mph 0.00 in   Overcast
8:53 AM 50.0 °F - 41.0 °F 71% 30.01 in 10.0 mi ESE 19.6 mph 26.5 mph 0.01 in   Overcast
9:32 AM 50.0 °F - 42.8 °F 76% 30.02 in 9.0 mi ESE 18.4 mph 23.0 mph 0.01 in Rain Light Rain
9:53 AM 50.0 °F - 44.1 °F 80% 30.03 in 10.0 mi ESE 18.4 mph 26.5 mph 0.01 in   Overcast
10:03 AM 51.8 °F - 44.6 °F 76% 30.03 in 10.0 mi ESE 17.3 mph - N/A   Overcast
10:53 AM 53.1 °F - 44.1 °F 71% 30.02 in 10.0 mi ESE 16.1 mph 23.0 mph N/A   Mostly Cloudy
11:53 AM 52.0 °F - 42.1 °F 69% 30.01 in 10.0 mi ESE 20.7 mph 28.8 mph N/A   Overcast
12:53 PM 50.0 °F - 45.0 °F 83% 30.03 in 3.0 mi West 4.6 mph - 0.07 in Rain Rain
1:06 PM 48.2 °F - 44.6 °F 87% 30.03 in 1.8 mi Calm Calm - 0.04 in Rain Rain
1:18 PM 48.2 °F - 46.4 °F 93% 30.03 in 3.0 mi WNW 8.1 mph - 0.07 in Rain Rain
1:53 PM 48.0 °F - 45.0 °F 89% 30.06 in 4.0 mi WNW 8.1 mph - 0.09 in Rain Light Rain
2:53 PM 53.1 °F - 48.0 °F 83% 30.06 in 10.0 mi North 3.5 mph - 0.01 in   Mostly Cloudy
3:53 PM 53.1 °F - 46.9 °F 80% 30.06 in 10.0 mi East 5.8 mph - N/A   Overcast
4:53 PM 51.1 °F - 46.9 °F 86% 30.06 in 10.0 mi ENE 8.1 mph - 0.01 in   Overcast
5:53 PM 50.0 °F - 46.0 °F 86% 30.08 in 10.0 mi East 11.5 mph - 0.00 in Rain Light Rain
6:53 PM 50.0 °F - 46.0 °F 86% 30.10 in 10.0 mi East 5.8 mph - 0.00 in   Overcast
7:53 PM 48.0 °F - 45.0 °F 89% 30.12 in 10.0 mi ESE 5.8 mph - N/A   Scattered Clouds
8:53 PM 48.9 °F - 46.0 °F 90% 30.12 in 10.0 mi East 4.6 mph - N/A   Overcast
9:53 PM 48.0 °F - 46.0 °F 93% 30.15 in 10.0 mi Calm Calm - N/A   Overcast
10:53 PM 46.9 °F - 45.0 °F 93% 30.14 in 10.0 mi SSE 3.5 mph - N/A   Clear
11:36 PM 44.6 °F - 44.6 °F 100% 30.15 in 0.8 mi Calm Calm - N/A   Clear
11:45 PM 44.6 °F - 42.8 °F 93% 30.15 in 2.0 mi Calm Calm - N/A   Clear
11:53 PM 44.1 °F 42.5 °F 42.1 °F 93% 30.15 in 1.8 mi SE 3.5 mph - N/A   Clear